Change the Weather History Date:

Wednesday, September 4, 2013

  Actual Average Record
Temperature  
Mean Temperature 78 °F -  
Max Temperature 91 °F 87 °F 94 °F (2012)
Min Temperature 65 °F 65 °F 60 °F (2008)
Cooling Degree Days 13    
Growing Degree Days 28 (Base 50)    
Moisture  
Dew Point 46 °F    
Average Humidity 32    
Maximum Humidity 54    
Minimum Humidity 16    
Precipitation  
Precipitation 0.00 in - - ()
Sea Level Pressure  
Sea Level Pressure 30.20 in    
Wind  
Wind Speed 5 mph (ESE)    
Max Wind Speed 16 mph    
Max Gust Speed 21 mph    
Visibility 10 miles    
Events      
Averages and records for this station are not official NWS values.
T = Trace of Precipitation, MM = Missing Value Source: NWS Daily Summary

Daily Weather History Graph

Daily Weather History Graph

Search for Another Location

Airport or City:

Trip Planner

Search our weather history database for the weather conditions in past years. The results will help you decide how hot, cold, wet, or windy it might be!

Date:

Astronomy

Sep. 04, 2013 Rise Set
Actual Time 6:44 AM MDT 7:27 PM MDT
Civil Twilight 6:19 AM MDT 7:52 PM MDT
Nautical Twilight 5:50 AM MDT 8:21 PM MDT
Astronomical Twilight 5:20 AM MDT 8:51 PM MDT
Moon 5:59 AM MDT (9/4) 6:51 PM MDT (9/4)
Length of Visible Light 13h 32m
Length of Day
12h 42m
Waning Crescent, 1% of the Moon is Illuminated
Sep 4
Waning Crescent
Sep 5
New
Sep 12
First Quarter
Sep 19
Full
Sep 26
Last Quarter

Hourly Weather History & Observations

Time (MDT) Temp. Dew Point Humidity Pressure Visibility Wind Dir Wind Speed Gust Speed Precip Events Conditions
12:15 AM 75.6 °F 46.6 °F 36% 30.20 in 10.0 mi East 5.8 mph - N/A   Clear
12:35 AM 74.8 °F 47.5 °F 38% 30.20 in 10.0 mi Calm Calm - N/A   Clear
12:55 AM 73.2 °F 47.8 °F 41% 30.20 in 10.0 mi Calm Calm - N/A   Clear
1:15 AM 73.6 °F 48.2 °F 41% 30.20 in 10.0 mi Calm Calm - N/A   Clear
1:35 AM 74.1 °F 47.7 °F 39% 30.20 in 10.0 mi ESE 3.5 mph - N/A   Clear
1:55 AM 74.8 °F 47.5 °F 38% 30.20 in 10.0 mi ESE 6.9 mph - N/A   Clear
2:15 AM 73.9 °F 47.5 °F 39% 30.19 in 10.0 mi ESE 4.6 mph - N/A   Clear
2:35 AM 72.9 °F 47.8 °F 41% 30.19 in 10.0 mi Calm Calm - N/A   Clear
2:55 AM 72.3 °F 47.8 °F 42% 30.19 in 10.0 mi ESE 4.6 mph - N/A   Clear
3:15 AM 71.6 °F 47.7 °F 43% 30.19 in 10.0 mi SE 4.6 mph - N/A   Clear
3:35 AM 71.4 °F 47.5 °F 42% 30.19 in 10.0 mi SE 3.5 mph - N/A   Clear
3:55 AM 71.8 °F 47.3 °F 42% 30.19 in 10.0 mi SE 4.6 mph - N/A   Clear
4:15 AM 70.5 °F 47.7 °F 44% 30.18 in 10.0 mi ESE 3.5 mph - N/A   Clear
4:35 AM 66.9 °F 48.2 °F 51% 30.18 in 10.0 mi Calm Calm - N/A   Clear
4:55 AM 65.8 °F 48.2 °F 53% 30.18 in 10.0 mi East 3.5 mph - N/A   Clear
5:15 AM 67.1 °F 48.2 °F 51% 30.18 in 10.0 mi ENE 3.5 mph - N/A   Clear
5:35 AM 67.8 °F 48.2 °F 49% 30.19 in 10.0 mi NE 3.5 mph - N/A   Clear
5:55 AM 68.9 °F 48.4 °F 48% 30.18 in 10.0 mi ENE 4.6 mph - N/A   Clear
6:15 AM 68.0 °F 48.7 °F 50% 30.19 in 10.0 mi NE 4.6 mph - N/A   Clear
6:35 AM 66.9 °F 48.9 °F 52% 30.20 in 10.0 mi NE 4.6 mph - N/A   Clear
6:55 AM 66.6 °F 49.5 °F 54% 30.20 in 10.0 mi NNE 4.6 mph - N/A   Clear
7:15 AM 67.6 °F 50.2 °F 54% 30.21 in 10.0 mi North 4.6 mph - N/A   Clear
7:35 AM 70.7 °F 51.6 °F 51% 30.21 in 10.0 mi NNE 3.5 mph - N/A   Clear
7:55 AM 73.9 °F 51.8 °F 46% 30.23 in 10.0 mi Calm Calm - N/A   Clear
8:15 AM 75.9 °F 50.2 °F 40% 30.23 in 10.0 mi Calm Calm - N/A   Clear
8:35 AM 77.2 °F 50.2 °F 39% 30.24 in 10.0 mi NNE 3.5 mph - N/A   Clear
8:55 AM 78.1 °F 50.0 °F 37% 30.24 in 10.0 mi NE 4.6 mph - N/A   Clear
9:15 AM 79.5 °F 50.0 °F 36% 30.24 in 10.0 mi East 6.9 mph - N/A   Clear
9:35 AM 81.3 °F 50.0 °F 33% 30.25 in 10.0 mi East 8.1 mph - N/A   Clear
9:55 AM 81.9 °F 50.9 °F 34% 30.25 in 10.0 mi East 10.4 mph - N/A   Clear
10:15 AM 82.8 °F 50.5 °F 33% 30.25 in 10.0 mi ESE 11.5 mph 19.6 mph N/A   Clear
10:35 AM 84.6 °F 49.8 °F 30% 30.26 in 10.0 mi ESE 10.4 mph 17.3 mph N/A   Clear
10:55 AM 84.7 °F 48.7 °F 29% 30.26 in 10.0 mi ESE 11.5 mph 18.4 mph N/A   Clear
11:15 AM 85.3 °F 48.0 °F 27% 30.26 in 10.0 mi SE 12.7 mph 20.7 mph N/A   Clear
11:35 AM 85.6 °F 47.1 °F 26% 30.25 in 10.0 mi ESE 12.7 mph 20.7 mph N/A   Clear
11:55 AM 86.4 °F 46.8 °F 25% 30.24 in 10.0 mi ESE 16.1 mph 19.6 mph N/A   Clear
12:15 PM 87.3 °F 45.9 °F 24% 30.24 in 10.0 mi East 10.4 mph 18.4 mph N/A   Clear
12:35 PM 87.8 °F 45.3 °F 23% 30.23 in 10.0 mi SE 9.2 mph 16.1 mph N/A   Clear
12:55 PM 87.8 °F 43.7 °F 21% 30.23 in 10.0 mi SE 9.2 mph 19.6 mph N/A   Scattered Clouds
1:15 PM 89.2 °F 42.3 °F 19% 30.22 in 10.0 mi SE 10.4 mph 20.7 mph N/A   Scattered Clouds
1:35 PM 89.4 °F 40.8 °F 18% 30.22 in 10.0 mi ESE 16.1 mph - N/A   Scattered Clouds
1:55 PM 90.0 °F 41.0 °F 18% 30.21 in 10.0 mi ESE 11.5 mph 18.4 mph N/A   Clear
2:15 PM 90.5 °F 38.5 °F 16% 30.20 in 10.0 mi East 11.5 mph 19.6 mph N/A   Clear
2:35 PM 90.7 °F 38.1 °F 16% 30.20 in 10.0 mi SE 12.7 mph 18.4 mph N/A   Clear
2:55 PM 90.3 °F 39.9 °F 17% 30.18 in 10.0 mi SSE 9.2 mph - N/A   Scattered Clouds
3:15 PM 90.9 °F 42.1 °F 18% 30.18 in 10.0 mi ESE 10.4 mph 16.1 mph N/A   Clear
3:35 PM 90.0 °F 43.3 °F 20% 30.17 in 10.0 mi East 6.9 mph - N/A   Scattered Clouds
3:55 PM 91.0 °F 43.5 °F 19% 30.16 in 10.0 mi East 12.7 mph 19.6 mph N/A   Scattered Clouds
4:15 PM 90.9 °F 42.8 °F 19% 30.16 in 10.0 mi SE 10.4 mph 17.3 mph N/A   Scattered Clouds
4:35 PM 90.7 °F 40.3 °F 17% 30.16 in 10.0 mi East 8.1 mph 17.3 mph N/A   Clear
4:55 PM 90.7 °F 39.4 °F 17% 30.15 in 10.0 mi ESE 9.2 mph 17.3 mph N/A   Clear
5:15 PM 90.9 °F 38.1 °F 16% 30.15 in 10.0 mi ESE 11.5 mph 17.3 mph N/A   Clear
5:35 PM 90.7 °F 39.2 °F 16% 30.15 in 10.0 mi ESE 6.9 mph 17.3 mph N/A   Clear
5:55 PM 90.3 °F 40.6 °F 18% 30.14 in 10.0 mi ESE 6.9 mph - N/A   Clear
6:15 PM 89.1 °F 43.3 °F 20% 30.14 in 10.0 mi East 11.5 mph 17.3 mph N/A   Clear
6:35 PM 88.3 °F 43.0 °F 20% 30.14 in 10.0 mi ESE 8.1 mph - N/A   Clear
6:55 PM 87.6 °F 44.8 °F 22% 30.14 in 10.0 mi ESE 8.1 mph - N/A   Clear
7:15 PM 86.2 °F 43.9 °F 23% 30.14 in 10.0 mi SE 6.9 mph - N/A   Clear
7:35 PM 85.1 °F 45.1 °F 25% 30.15 in 10.0 mi ESE 5.8 mph - N/A   Clear
7:55 PM 83.5 °F 45.7 °F 27% 30.15 in 10.0 mi ESE 6.9 mph - N/A   Clear
8:15 PM 82.4 °F 45.5 °F 27% 30.16 in 10.0 mi ESE 6.9 mph - N/A   Clear
8:35 PM 81.1 °F 45.5 °F 28% 30.16 in 10.0 mi East 5.8 mph - N/A   Clear
8:55 PM 80.6 °F 45.0 °F 28% 30.18 in 10.0 mi East 5.8 mph - N/A   Clear
9:15 PM 79.2 °F 45.0 °F 30% 30.18 in 10.0 mi East 4.6 mph - N/A   Scattered Clouds
9:35 PM 79.7 °F 44.8 °F 29% 30.19 in 10.0 mi East 6.9 mph - N/A   Scattered Clouds
9:55 PM 79.3 °F 45.5 °F 30% 30.19 in 10.0 mi ESE 5.8 mph - N/A   Scattered Clouds
10:15 PM 78.1 °F 45.7 °F 32% 30.20 in 10.0 mi East 4.6 mph - N/A   Clear
10:35 PM 77.9 °F 46.0 °F 32% 30.20 in 10.0 mi East 4.6 mph - N/A   Scattered Clouds
10:55 PM 77.2 °F 46.4 °F 34% 30.20 in 10.0 mi Calm Calm - N/A   Mostly Cloudy
11:15 PM 74.7 °F 46.4 °F 37% 30.21 in 10.0 mi Calm Calm - N/A   Scattered Clouds
11:35 PM 76.3 °F 46.4 °F 35% 30.21 in 10.0 mi East 3.5 mph - N/A   Mostly Cloudy
11:55 PM 76.5 °F 46.4 °F 34% 30.22 in 10.0 mi East 4.6 mph - N/A   Overcast